EZY87XL EGKK-LOWS

Flight info

Callsign EZY87XL
Flight time 1h 32m
Altitude 23000
Route DVR L9 KONAN/N0442F390 UL607 SPI DCT GUBAX DCT BOREP DCT ARMUT T703 ARBAX T108 OSTES T700 BADIT BADIT2R
Aircraft A20N/M-SDE2E3FGHIRWXY/LB1

Departure

Time 2026-05-04 11:43
Airport London Gatwick Airport (EGKK)

Arrival

Time 2026-05-04 13:15
Airport Salzburg Airport (LOWS)
Time Latitude Longitude Altitude Speed Heading
2026-05-04 11:01 51.16003 -0.17077 205 ft 0 kts 321°
2026-05-04 11:29 51.15992 -0.17061 217 ft 2 kts 317°
2026-05-04 11:29 51.15980 -0.17043 217 ft 2 kts 312°
2026-05-04 11:29 51.15969 -0.17023 210 ft 2 kts 303°
2026-05-04 11:29 51.15962 -0.17000 217 ft 2 kts 287°
2026-05-04 11:31 51.15965 -0.16944 216 ft 0 kts 245°
2026-05-04 11:33 51.15961 -0.16960 211 ft 4 kts 244°
2026-05-04 11:33 51.15924 -0.17031 208 ft 14 kts 217°
2026-05-04 11:33 51.15824 -0.17111 210 ft 17 kts 228°
2026-05-04 11:34 51.15791 -0.17302 209 ft 19 kts 258°
2026-05-04 11:34 51.15761 -0.17522 213 ft 21 kts 257°
2026-05-04 11:34 51.15727 -0.17766 207 ft 23 kts 257°
2026-05-04 11:34 51.15690 -0.18030 212 ft 25 kts 257°
2026-05-04 11:35 51.15652 -0.18309 208 ft 23 kts 252°
2026-05-04 11:35 51.15528 -0.18329 204 ft 20 kts 166°
2026-05-04 11:35 51.15384 -0.18276 208 ft 22 kts 168°
2026-05-04 11:35 51.15229 -0.18227 211 ft 22 kts 177°
2026-05-04 11:36 51.15178 -0.18388 204 ft 18 kts 260°
2026-05-04 11:36 51.15147 -0.18620 204 ft 27 kts 258°
2026-05-04 11:36 51.15102 -0.18948 209 ft 33 kts 257°
2026-05-04 11:36 51.15053 -0.19309 212 ft 34 kts 257°
2026-05-04 11:37 51.15001 -0.19679 209 ft 35 kts 257°
2026-05-04 11:37 51.14949 -0.20057 206 ft 35 kts 258°
2026-05-04 11:37 51.14896 -0.20441 214 ft 36 kts 257°
2026-05-04 11:37 51.14843 -0.20820 204 ft 34 kts 257°
2026-05-04 11:38 51.14798 -0.21137 214 ft 21 kts 249°
2026-05-04 11:38 51.14769 -0.21288 210 ft 12 kts 258°
2026-05-04 11:38 51.14746 -0.21393 212 ft 9 kts 227°
2026-05-04 11:38 51.14727 -0.21406 212 ft 0 kts 187°
2026-05-04 11:39 51.14720 -0.21406 211 ft 4 kts 183°
2026-05-04 11:39 51.14676 -0.21383 208 ft 9 kts 141°
2026-05-04 11:40 51.14522 -0.21189 211 ft 11 kts 93°
2026-05-04 11:41 51.14535 -0.21064 209 ft 12 kts 78°
2026-05-04 11:41 51.14545 -0.20988 211 ft 0 kts 77°
2026-05-04 11:42 51.14546 -0.20978 209 ft 8 kts 77°
2026-05-04 11:42 51.14625 -0.20424 211 ft 94 kts 77°
2026-05-04 11:42 51.14818 -0.19036 217 ft 160 kts 77°
2026-05-04 11:43 51.15067 -0.17204 823 ft 174 kts 76°
2026-05-04 11:43 51.15348 -0.15240 1515 ft 190 kts 76°
2026-05-04 11:43 51.15702 -0.13163 2280 ft 201 kts 73°
2026-05-04 11:43 51.16103 -0.10895 2828 ft 224 kts 75°
2026-05-04 11:44 51.16458 -0.08357 3408 ft 245 kts 79°
2026-05-04 11:44 51.16768 -0.05610 4002 ft 264 kts 80°
2026-05-04 11:44 51.16933 -0.02661 4903 ft 269 kts 91°
2026-05-04 11:44 51.16848 0.00347 5840 ft 275 kts 94°
2026-05-04 11:45 51.16771 0.03416 6754 ft 279 kts 93°
2026-05-04 11:45 51.16709 0.06524 7680 ft 282 kts 93°
2026-05-04 11:45 51.16653 0.09675 8621 ft 286 kts 93°
2026-05-04 11:45 51.16596 0.12865 9546 ft 290 kts 93°
2026-05-04 11:46 51.16539 0.16096 10342 ft 294 kts 92°
2026-05-04 11:46 51.16523 0.19372 11176 ft 297 kts 91°
2026-05-04 11:46 51.16540 0.22689 11996 ft 302 kts 91°
2026-05-04 11:46 51.16561 0.26012 12813 ft 306 kts 91°
2026-05-04 11:47 51.16578 0.29419 13631 ft 310 kts 91°
2026-05-04 11:47 51.16589 0.32871 14383 ft 313 kts 91°
2026-05-04 11:47 51.16594 0.36350 15125 ft 316 kts 92°
2026-05-04 11:47 51.16594 0.39862 15858 ft 319 kts 92°
2026-05-04 11:48 51.16592 0.43415 16556 ft 323 kts 92°
2026-05-04 11:48 51.16589 0.47006 17261 ft 325 kts 92°
2026-05-04 11:48 51.16586 0.50639 17890 ft 333 kts 92°
2026-05-04 11:48 51.16582 0.54442 18096 ft 352 kts 92°
2026-05-04 11:49 51.16577 0.58448 18287 ft 371 kts 92°
2026-05-04 11:49 51.16574 0.62643 18587 ft 383 kts 92°
2026-05-04 11:49 51.16571 0.66909 19136 ft 387 kts 92°
2026-05-04 11:49 51.16566 0.71223 19724 ft 391 kts 92°
2026-05-04 11:50 51.16558 0.75575 20284 ft 395 kts 92°
2026-05-04 11:50 51.16548 0.79982 20887 ft 400 kts 92°
2026-05-04 11:50 51.16536 0.84436 21448 ft 404 kts 92°
2026-05-04 11:50 51.16522 0.88756 21980 ft 408 kts 92°
2026-05-04 11:51 51.16506 0.93303 22507 ft 413 kts 92°
2026-05-04 11:51 51.16487 0.97910 23068 ft 417 kts 92°
2026-05-04 11:51 51.16467 1.02549 23577 ft 421 kts 92°
2026-05-04 11:51 51.16445 1.07230 24035 ft 424 kts 92°
2026-05-04 11:52 51.16421 1.11947 24538 ft 426 kts 92°
2026-05-04 11:52 51.16395 1.16674 25004 ft 428 kts 93°
2026-05-04 11:52 51.16367 1.21434 25483 ft 431 kts 93°
2026-05-04 11:52 51.16337 1.26219 25922 ft 433 kts 93°
2026-05-04 11:53 51.16304 1.31031 26379 ft 435 kts 93°
2026-05-04 11:53 51.16259 1.35867 26819 ft 437 kts 95°
2026-05-04 11:53 51.16041 1.40590 27226 ft 438 kts 98°
2026-05-04 11:53 51.15800 1.45565 27655 ft 441 kts 97°
2026-05-04 11:55 51.14112 1.80113 30239 ft 454 kts 98°
2026-05-04 11:55 51.13856 1.85143 30524 ft 457 kts 99°
2026-05-04 11:56 51.13596 1.90190 30815 ft 459 kts 99°
2026-05-04 11:56 51.13336 1.95207 31095 ft 461 kts 99°
2026-05-04 11:56 51.13070 2.00306 31454 ft 461 kts 99°
2026-05-04 11:56 51.12802 2.05389 31808 ft 461 kts 99°
2026-05-04 11:57 51.12532 2.10475 32167 ft 461 kts 99°
2026-05-04 11:57 51.12260 2.15562 32521 ft 461 kts 99°
2026-05-04 11:57 51.11985 2.20653 32869 ft 461 kts 100°
2026-05-04 11:57 51.11708 2.25731 33203 ft 461 kts 100°
2026-05-04 11:58 51.11429 2.30809 33533 ft 461 kts 100°
2026-05-04 11:58 51.11146 2.35902 33857 ft 461 kts 100°
2026-05-04 11:58 51.10866 2.40918 34138 ft 461 kts 100°
2026-05-04 11:58 51.10580 2.45993 34408 ft 460 kts 100°
2026-05-04 11:59 51.10292 2.51067 34664 ft 460 kts 100°
2026-05-04 11:59 51.10002 2.56131 34908 ft 460 kts 100°
2026-05-04 11:59 51.09709 2.61206 35143 ft 460 kts 101°
2026-05-04 11:59 51.09230 2.66207 35377 ft 456 kts 107°
2026-05-04 12:00 51.08422 2.71076 35596 ft 453 kts 111°
2026-05-04 12:00 51.07538 2.75882 35801 ft 453 kts 111°
2026-05-04 12:00 51.06662 2.80696 36024 ft 453 kts 110°
2026-05-04 12:00 51.05786 2.85521 36233 ft 453 kts 110°
2026-05-04 12:01 51.04911 2.90332 36445 ft 453 kts 110°
2026-05-04 12:01 51.04031 2.95155 36638 ft 453 kts 110°
2026-05-04 12:02 50.98722 3.23948 37740 ft 453 kts 110°
2026-05-04 12:03 50.97828 3.28750 37915 ft 453 kts 109°
2026-05-04 12:03 50.96934 3.33544 38076 ft 453 kts 109°
2026-05-04 12:03 50.96039 3.38328 38233 ft 453 kts 109°
2026-05-04 12:03 50.95140 3.43127 38387 ft 453 kts 109°
2026-05-04 12:04 50.94240 3.47915 38546 ft 453 kts 109°
2026-05-04 12:04 50.93350 3.52642 38672 ft 453 kts 109°
2026-05-04 12:04 50.92446 3.57425 38787 ft 452 kts 109°
2026-05-04 12:04 50.91541 3.62208 38881 ft 453 kts 109°
2026-05-04 12:05 50.89711 3.71775 38987 ft 453 kts 110°
2026-05-04 12:05 50.87871 3.81293 38992 ft 452 kts 110°
2026-05-04 12:06 50.86029 3.90779 38999 ft 452 kts 110°
2026-05-04 12:06 50.84173 4.00298 38995 ft 452 kts 110°
2026-05-04 12:07 50.82311 4.09804 38996 ft 452 kts 110°
2026-05-04 12:07 50.80441 4.19304 38995 ft 452 kts 110°
2026-05-04 12:08 50.78563 4.28799 38993 ft 452 kts 110°
2026-05-04 12:08 50.76660 4.38288 38998 ft 453 kts 111°
2026-05-04 12:09 50.74757 4.47764 38996 ft 453 kts 111°
2026-05-04 12:09 50.72880 4.57199 38997 ft 453 kts 110°
2026-05-04 12:10 50.71012 4.66715 39007 ft 455 kts 110°
2026-05-04 12:10 50.69177 4.76273 39005 ft 454 kts 110°
2026-05-04 12:11 50.67327 4.85806 39003 ft 455 kts 110°
2026-05-04 12:11 50.65446 4.95348 39006 ft 456 kts 111°
2026-05-04 12:12 50.63487 5.04856 39003 ft 457 kts 111°
2026-05-04 12:12 50.61514 5.14372 38994 ft 457 kts 111°
2026-05-04 12:14 50.53916 5.50799 39000 ft 460 kts 112°
2026-05-04 12:15 50.51943 5.60374 39002 ft 462 kts 109°
2026-05-04 12:15 50.50759 5.70270 38992 ft 466 kts 101°
2026-05-04 12:16 50.49876 5.80383 38996 ft 467 kts 101°
2026-05-04 12:16 50.48970 5.90491 38981 ft 467 kts 101°
2026-05-04 12:17 50.48054 6.00581 38983 ft 466 kts 101°
2026-05-04 12:17 50.47135 6.10586 38982 ft 466 kts 101°
2026-05-04 12:18 50.46201 6.20673 38981 ft 466 kts 101°
2026-05-04 12:18 50.45257 6.30751 38971 ft 466 kts 101°
2026-05-04 12:19 50.44307 6.40809 38972 ft 466 kts 102°
2026-05-04 12:19 50.43355 6.50793 38973 ft 466 kts 102°
2026-05-04 12:20 50.42388 6.60840 38973 ft 465 kts 102°
2026-05-04 12:20 50.41414 6.70870 38978 ft 465 kts 102°
2026-05-04 12:21 50.40431 6.80897 38988 ft 465 kts 102°
2026-05-04 12:21 50.39438 6.90933 38996 ft 465 kts 102°
2026-05-04 12:22 50.38444 7.00897 39000 ft 466 kts 102°
2026-05-04 12:22 50.37434 7.10926 38994 ft 465 kts 102°
2026-05-04 12:23 50.36405 7.20891 38994 ft 463 kts 103°
2026-05-04 12:23 50.35368 7.30869 38994 ft 463 kts 103°
2026-05-04 12:24 50.34338 7.40841 38997 ft 463 kts 103°
2026-05-04 12:24 50.33310 7.50728 38994 ft 463 kts 103°
2026-05-04 12:25 50.32268 7.60673 38991 ft 462 kts 103°
2026-05-04 12:25 50.31217 7.70604 38988 ft 462 kts 103°
2026-05-04 12:26 50.30157 7.80528 38995 ft 463 kts 103°
2026-05-04 12:26 50.29089 7.90458 38996 ft 463 kts 103°
2026-05-04 12:27 50.28022 8.00330 38990 ft 463 kts 103°
2026-05-04 12:27 50.26948 8.10274 38986 ft 463 kts 103°
2026-05-04 12:28 50.25869 8.20197 38985 ft 463 kts 103°
2026-05-04 12:28 50.24779 8.30115 38987 ft 463 kts 103°
2026-05-04 12:29 50.23678 8.40042 38987 ft 464 kts 103°
2026-05-04 12:29 50.22575 8.49901 38988 ft 464 kts 103°
2026-05-04 12:30 50.21455 8.59836 38991 ft 464 kts 103°
2026-05-04 12:30 50.20327 8.69762 38985 ft 464 kts 103°
2026-05-04 12:31 50.19189 8.79690 38987 ft 464 kts 103°
2026-05-04 12:31 50.18050 8.89550 38986 ft 465 kts 103°
2026-05-04 12:32 50.16315 9.04431 38990 ft 465 kts 103°
2026-05-04 12:33 50.15147 9.14345 38992 ft 465 kts 103°
2026-05-04 12:33 50.13967 9.24288 38994 ft 466 kts 103°
2026-05-04 12:34 50.12780 9.34221 38999 ft 466 kts 103°
2026-05-04 12:34 50.11583 9.44153 39002 ft 466 kts 103°
2026-05-04 12:35 50.10381 9.54055 38989 ft 464 kts 103°
2026-05-04 12:35 50.09173 9.63932 38990 ft 465 kts 104°
2026-05-04 12:36 50.07954 9.73817 38990 ft 464 kts 104°
2026-05-04 12:36 50.06737 9.83624 38985 ft 464 kts 104°
2026-05-04 12:37 50.05508 9.93497 38984 ft 464 kts 103°
2026-05-04 12:37 50.04284 10.03379 38984 ft 464 kts 103°
2026-05-04 12:38 50.03037 10.13242 38982 ft 464 kts 104°
2026-05-04 12:38 50.01776 10.23086 38981 ft 464 kts 104°
2026-05-04 12:39 50.00503 10.32944 38983 ft 465 kts 104°
2026-05-04 12:39 49.99224 10.42786 38982 ft 465 kts 104°
2026-05-04 12:40 49.97942 10.52581 38987 ft 465 kts 104°
2026-05-04 12:40 49.96648 10.62432 38986 ft 465 kts 104°
2026-05-04 12:41 49.95316 10.72278 38985 ft 465 kts 104°
2026-05-04 12:41 49.93960 10.82109 38991 ft 466 kts 104°
2026-05-04 12:42 49.92608 10.91896 38992 ft 466 kts 104°
2026-05-04 12:42 49.91235 11.01784 39004 ft 466 kts 104°
2026-05-04 12:43 49.89866 11.11576 38996 ft 466 kts 105°
2026-05-04 12:43 49.88484 11.21401 38995 ft 466 kts 105°
2026-05-04 12:44 49.87093 11.31227 39006 ft 466 kts 105°
2026-05-04 12:44 49.85695 11.41039 39006 ft 466 kts 105°
2026-05-04 12:45 49.84288 11.50845 38998 ft 466 kts 105°
2026-05-04 12:45 49.82875 11.60632 39000 ft 465 kts 105°
2026-05-04 12:46 49.81456 11.70403 38992 ft 465 kts 105°
2026-05-04 12:46 49.80031 11.80156 38996 ft 464 kts 105°
2026-05-04 12:47 49.78607 11.89837 38997 ft 464 kts 105°
2026-05-04 12:47 49.77166 11.99573 38988 ft 463 kts 105°
2026-05-04 12:48 49.75718 12.09289 38997 ft 462 kts 105°
2026-05-04 12:48 49.74278 12.18906 38995 ft 462 kts 105°
2026-05-04 12:48 49.73550 12.23738 38842 ft 462 kts 105°
2026-05-04 12:49 49.72561 12.28431 38600 ft 457 kts 118°
2026-05-04 12:49 49.70979 12.32647 38318 ft 452 kts 130°
2026-05-04 12:49 49.68880 12.36215 38033 ft 447 kts 143°
2026-05-04 12:49 49.66445 12.39136 37753 ft 446 kts 147°
2026-05-04 12:50 49.63960 12.42022 37471 ft 447 kts 147°
2026-05-04 12:50 49.61479 12.44912 37199 ft 447 kts 146°
2026-05-04 12:50 49.59081 12.47706 36930 ft 448 kts 147°
2026-05-04 12:50 49.56595 12.50601 36643 ft 448 kts 147°
2026-05-04 12:51 49.54124 12.53473 36033 ft 451 kts 147°
2026-05-04 12:51 49.51617 12.56384 35352 ft 453 kts 147°
2026-05-04 12:51 49.49097 12.59306 34660 ft 453 kts 147°
2026-05-04 12:51 49.46572 12.62230 33904 ft 455 kts 147°
2026-05-04 12:52 49.44046 12.65178 33181 ft 455 kts 144°
2026-05-04 12:52 49.41682 12.68410 32453 ft 456 kts 140°
2026-05-04 12:52 49.39384 12.71771 31719 ft 456 kts 140°
2026-05-04 12:52 49.37090 12.75145 31079 ft 455 kts 137°
2026-05-04 12:53 49.34996 12.78748 30583 ft 451 kts 132°
2026-05-04 12:53 49.33007 12.82441 30040 ft 447 kts 132°
2026-05-04 12:53 49.31035 12.86089 29482 ft 442 kts 132°
2026-05-04 12:53 49.29081 12.89689 28951 ft 437 kts 132°
2026-05-04 12:54 49.27144 12.93243 28430 ft 431 kts 134°
2026-05-04 12:54 49.24979 12.96324 27924 ft 421 kts 147°
2026-05-04 12:54 49.22463 12.98472 27425 ft 410 kts 161°
2026-05-04 12:54 49.19839 12.99624 26963 ft 401 kts 174°
2026-05-04 12:55 49.17116 12.99858 26496 ft 392 kts 186°
2026-05-04 12:55 49.14456 12.99179 26029 ft 384 kts 198°
2026-05-04 12:55 49.11965 12.97659 25563 ft 397 kts 207°
2026-05-04 12:55 49.09417 12.95789 25066 ft 413 kts 207°
2026-05-04 12:56 49.06800 12.93881 24560 ft 418 kts 206°
2026-05-04 12:56 49.04176 12.91975 24050 ft 417 kts 206°
2026-05-04 12:56 49.01569 12.90084 23539 ft 412 kts 206°
2026-05-04 12:56 48.98996 12.88221 22991 ft 406 kts 206°
2026-05-04 12:57 48.96464 12.86389 22496 ft 399 kts 206°
2026-05-04 12:57 48.93979 12.84597 22012 ft 392 kts 206°
2026-05-04 12:57 48.91565 12.82864 21532 ft 386 kts 206°
2026-05-04 12:57 48.89152 12.81133 21052 ft 380 kts 206°
2026-05-04 12:58 48.86777 12.79429 20583 ft 375 kts 206°
2026-05-04 12:58 48.84432 12.77748 20117 ft 370 kts 206°
2026-05-04 12:58 48.82114 12.76090 19649 ft 365 kts 206°
2026-05-04 12:58 48.79829 12.74456 19197 ft 361 kts 206°
2026-05-04 12:59 48.78331 12.73386 18896 ft 358 kts 206°
2026-05-04 12:59 48.76993 12.72431 18623 ft 356 kts 206°
2026-05-04 12:59 48.74762 12.70840 18165 ft 353 kts 206°
2026-05-04 12:59 48.72526 12.69354 17696 ft 349 kts 200°
2026-05-04 13:00 48.70174 12.68564 17253 ft 346 kts 187°
2026-05-04 13:00 48.67778 12.68614 16822 ft 344 kts 174°
2026-05-04 13:00 48.65428 12.69228 16380 ft 341 kts 172°
2026-05-04 13:00 48.63102 12.69845 15946 ft 337 kts 172°
2026-05-04 13:01 48.60801 12.70446 15523 ft 334 kts 173°
2026-05-04 13:01 48.58517 12.71018 15093 ft 331 kts 174°
2026-05-04 13:01 48.56253 12.71509 14676 ft 327 kts 174°
2026-05-04 13:01 48.54007 12.71971 14263 ft 324 kts 174°
2026-05-04 13:02 48.51808 12.72422 13855 ft 322 kts 174°
2026-05-04 13:02 48.49592 12.72880 13424 ft 319 kts 174°
2026-05-04 13:02 48.47404 12.73339 12984 ft 317 kts 174°
2026-05-04 13:02 48.45191 12.73805 12555 ft 332 kts 174°
2026-05-04 13:03 48.42835 12.74297 12087 ft 347 kts 174°
2026-05-04 13:03 48.41244 12.74634 11775 ft 350 kts 174°
2026-05-04 13:03 48.38834 12.75259 11294 ft 351 kts 168°
2026-05-04 13:03 48.36466 12.76134 10817 ft 348 kts 168°
2026-05-04 13:04 48.34132 12.76995 10458 ft 341 kts 168°
2026-05-04 13:04 48.31876 12.77823 10315 ft 326 kts 168°
2026-05-04 13:04 48.29713 12.78618 10189 ft 313 kts 168°
2026-05-04 13:04 48.27635 12.79371 10089 ft 301 kts 168°
2026-05-04 13:05 48.25639 12.80096 9954 ft 291 kts 168°
2026-05-04 13:05 48.23692 12.80805 9676 ft 286 kts 168°
2026-05-04 13:05 48.21778 12.81493 9327 ft 285 kts 168°
2026-05-04 13:05 48.19858 12.82187 8908 ft 283 kts 168°
2026-05-04 13:06 48.17945 12.82880 8474 ft 283 kts 168°
2026-05-04 13:06 48.16023 12.83578 8094 ft 282 kts 168°
2026-05-04 13:06 48.14123 12.84266 7742 ft 280 kts 168°
2026-05-04 13:06 48.12226 12.84949 7405 ft 280 kts 168°
2026-05-04 13:07 48.10342 12.85629 7058 ft 276 kts 168°
2026-05-04 13:07 48.08483 12.86298 6720 ft 273 kts 167°
2026-05-04 13:07 48.06653 12.86961 6393 ft 275 kts 167°
2026-05-04 13:07 48.04789 12.87635 6042 ft 275 kts 167°
2026-05-04 13:08 48.02935 12.88307 5707 ft 274 kts 167°
2026-05-04 13:08 48.01162 12.89328 5304 ft 275 kts 145°
2026-05-04 13:08 47.99891 12.91401 5083 ft 269 kts 117°
2026-05-04 13:08 47.99293 12.93976 5023 ft 258 kts 105°
2026-05-04 13:09 47.98806 12.96565 4998 ft 256 kts 105°
2026-05-04 13:09 47.98276 12.99029 4994 ft 242 kts 116°
2026-05-04 13:09 47.97254 13.00934 5004 ft 232 kts 142°
2026-05-04 13:09 47.95847 13.01934 5003 ft 218 kts 167°
2026-05-04 13:10 47.94407 13.02358 5022 ft 205 kts 167°
2026-05-04 13:10 47.93016 13.02785 5025 ft 205 kts 166°
2026-05-04 13:10 47.91597 13.03207 4999 ft 207 kts 167°
2026-05-04 13:10 47.90186 13.03664 4996 ft 207 kts 166°
2026-05-04 13:11 47.88775 13.04112 4999 ft 208 kts 167°
2026-05-04 13:11 47.87359 13.04535 4984 ft 210 kts 167°
2026-05-04 13:11 47.85912 13.04970 4764 ft 213 kts 166°
2026-05-04 13:11 47.84443 13.05414 4514 ft 217 kts 166°
2026-05-04 13:12 47.82943 13.05876 4232 ft 224 kts 167°
2026-05-04 13:12 47.81389 13.06350 3941 ft 231 kts 167°
2026-05-04 13:12 47.79809 13.06822 3629 ft 231 kts 167°
2026-05-04 13:12 47.78248 13.07309 3357 ft 227 kts 166°
2026-05-04 13:13 47.76702 13.07611 3091 ft 223 kts 186°
2026-05-04 13:13 47.75332 13.06829 2995 ft 204 kts 219°
2026-05-04 13:13 47.74588 13.05154 2819 ft 188 kts 258°
2026-05-04 13:13 47.74706 13.03371 2637 ft 166 kts 302°
2026-05-04 13:14 47.75497 13.02324 2407 ft 149 kts 343°
2026-05-04 13:14 47.76571 13.01958 1978 ft 164 kts 352°
2026-05-04 13:14 47.77625 13.01465 1654 ft 155 kts 336°
2026-05-04 13:14 47.78576 13.00868 1428 ft 142 kts 340°
2026-05-04 13:15 47.79346 13.00388 1421 ft 93 kts 336°
2026-05-04 13:15 47.79732 13.00141 1420 ft 46 kts 337°
2026-05-04 13:15 47.80024 12.99956 1421 ft 44 kts 336°
2026-05-04 13:15 47.80258 12.99798 1420 ft 30 kts 321°
2026-05-04 13:16 47.80255 12.99626 1420 ft 17 kts 233°
2026-05-04 13:16 47.80144 12.99614 1420 ft 18 kts 159°
2026-05-04 13:16 47.80026 12.99690 1420 ft 19 kts 155°
2026-05-04 13:16 47.79897 12.99771 1423 ft 21 kts 158°
2026-05-04 13:17 47.79778 12.99817 1420 ft 10 kts 221°
2026-05-04 13:17 47.79744 12.99739 1420 ft 9 kts 199°
2026-05-04 13:17 47.79677 12.99763 1422 ft 12 kts 156°
2026-05-04 13:17 47.79595 12.99817 1421 ft 14 kts 156°
2026-05-04 13:18 47.79556 12.99925 1422 ft 14 kts 72°
2026-05-04 13:18 47.79534 12.99999 1420 ft 10 kts 148°
2026-05-04 13:18 47.79456 13.00051 1420 ft 14 kts 156°
2026-05-04 13:18 47.79355 13.00115 1420 ft 17 kts 157°
2026-05-04 13:19 47.79238 13.00185 1423 ft 19 kts 158°
2026-05-04 13:19 47.79109 13.00269 1419 ft 21 kts 158°
2026-05-04 13:19 47.78976 13.00338 1419 ft 15 kts 192°
2026-05-04 13:19 47.78954 13.00267 1419 ft 9 kts 270°
2026-05-04 13:20 47.78959 13.00152 1419 ft 13 kts 279°
2026-05-04 13:20 47.79033 13.00104 1421 ft 13 kts 344°
2026-05-04 13:20 47.79125 13.00051 1420 ft 16 kts 337°
2026-05-04 13:20 47.79193 12.99941 1423 ft 16 kts 283°
2026-05-04 13:21 47.79199 12.99891 1420 ft 0 kts 282°